Regional Weather Roundup
Issued by NWS

Home | Current Version | Previous Version | Graphics & Text | Print | Product List | Glossary Off
Versions: 1 2 3 4 5 6 7 8 9 10 11 12 13 14 15 16 17 18 19 20 21 22 23 24 25 26 27 28 29 30 31 32 33 34 35 36 37 38 39 40 41 42 43 44 45 46 47 48 49 50

419
ASUS43 KDTX 170901
RWRMI
MICHIGAN HOURLY REGIONAL WEATHER ROUNDUP
NATIONAL WEATHER SERVICE DETROIT/PONTIAC MI
400 AM EST WED JAN 17 2018

NOTE: "FAIR" INDICATES FEW OR NO CLOUDS BELOW 12,000 FEET WITH NO
SIGNIFICANT WEATHER AND/OR OBSTRUCTION TO VISIBILITY.

MIZ047>049-052>055-059>063-066>070-074>076-081>083-171000-
SOUTHEAST LOWER MICHIGAN

CITY           SKY/WX    TMP DP  RH WIND       PRES   REMARKS
ADRIAN         FAIR       2  -1  88 W6        30.47S WCI  -9
ALMA           CLOUDY     8   6  91 CALM      30.43F
ANN ARBOR      FAIR       5   2  87 SW5       30.45R WCI  -4
BAD AXE        FAIR      -3  -7  84 S3        30.40S
CARO           FAIR      -5  -9  84 CALM      30.41F
DETROIT CITY   CLOUDY     7   3  84 W5        30.46S WCI  -2
DETROIT        FLURRIES   6   3  87 S6        30.47S WCI  -4
FLINT          FAIR       0  -2  91 S8        30.42F WCI -14
GROSSE ILE     CLOUDY     6   2  84 W3        30.47S
HILLSDALE      FAIR       3   0  85 CALM      30.42S
HOWELL         FAIR       4   2  92 CALM      30.42F

CITY           SKY/WX    TMP DP  RH WIND       PRES   REMARKS
JACKSON        FAIR       2  -1  88 S5        30.43F WCI  -8
LAMBERTVILLE   FLURRIES   4   1  83 W5        30.48F WCI  -5
LANSING        MOCLDY     2  -1  88 SW5       30.44S WCI  -8
LAPEER         FAIR       2  -2  85 CALM      30.42S FOG
MASON          FAIR       0  -5  77 CALM      30.43S
MT. CLEMENS    FAIR       5   3  92 W6          N/A  WCI  -6
PONTIAC        CLOUDY     1  -1  91 W5        30.41R FOG     WCI  -9
PORT HOPE        N/A      4   0  83 SW5       30.38F WCI  -5
PORT HURON     FAIR       3   0  85 CALM      30.44S
TRI CITIES     FAIR       3   2  95 W8        30.42F WCI -10
MIDLAND        CLOUDY     0  -4  82 CALM      30.42S
TROY           FAIR       7   3  85 SW5       30.46S WCI  -2
SAGINAW HB     LGT SNOW   1   0  92 SW8       30.42F WCI -12
$$
MIZ043>046-050>051-056>058-064>065-071>073-077>080-171000-
SOUTHWEST LOWER MICHIGAN

CITY           SKY/WX    TMP DP  RH WIND       PRES   REMARKS
BATTLE CREEK   MOCLDY     1  -3  83 S3        30.45S
BENTON HARBOR  LGT SNOW  12   8  84 CALM      30.49R FOG
BIG RAPIDS     FLURRIES   9   5  84 CALM      30.39F
COLDWATER      FAIR      -1  -4  85 CALM      30.46S
HOLLAND        FLURRIES  14   9  80 S3        30.46F
GRAND RAPIDS   CLOUDY     8   4  83 S6        30.45R WCI  -2
IONIA          MOCLDY     4   1  86 SW3       30.43F
KALAMAZOO      CLOUDY     4  -1  80 S3        30.46S
LUDINGTON      CLOUDY    22  13  67 W8        30.40F WCI  13
MARSHALL       FAIR      -1  -5  84 CALM      30.45S
MOUNT PLEASANT CLOUDY    11   5  77 SW7       30.40F WCI   0
MUSKEGON       LGT SNOW  18  10  71 S5        30.45F WCI  11
SOUTH HAVEN    CLOUDY     9   6  87 CALM      30.48S
$$
MIZ016>042-171000-
NORTHERN LOWER MICHIGAN

CITY           SKY/WX    TMP DP  RH WIND       PRES   REMARKS
ALPENA         CLOUDY    -5  -7  91 SW3       30.35F
BEAVER ISLAND  MOCLDY    22  14  70 W16G24    30.29F WCI   9
BELLAIRE       CLOUDY    15  14  96 S5        30.37S WCI   7
CADILLAC       FLURRIES  10   7  91 SW6       30.32F WCI   0
CHARLEVOIX     CLOUDY    23  13  67 W13G18    30.35F WCI  11
FRANKFORT      CLOUDY    24  14  65 W9        30.38S WCI  15
GAYLORD        FLURRIES   9   8  96 SW6       30.28F WCI  -1
GRAYLING       LGT SNOW   9   4  82 CALM      30.32F
HARBOR SPRINGS CLOUDY    14  11  87 CALM      30.31F
HOUGHTON LAKE  CLOUDY    10   6  84 SW6       30.34F WCI   0
MANISTEE       CLOUDY    16  13  88 CALM      30.39F
OSCODA         FAIR      -5 -10  79 SW6       30.38S WCI -18
PELLSTON       CLOUDY     5   2  87 CALM      30.30F
ROGERS CITY    FLURRIES  11   7  82 SW7       30.34F WCI   1
TRAVERSE CITY  CLOUDY    18  13  80 SW3       30.36F
$$
MIZ007>008-015-171000-
EASTERN UPPER MICHIGAN

CITY           SKY/WX    TMP DP  RH WIND       PRES   REMARKS
KINROSS        FAIR      10   7  87 SW6       30.25F WCI   0
MACKINAC ISLAN FAIR      15  12  88 SW8       30.28F WCI   4
NEWBERRY       MOCLDY    11   9  89 SW12      30.22F WCI  -3
S. S. MARIE    MOCLDY    14   8  77 SW8       30.25F WCI   3
MUNISING         N/A     11   6  81 SW8       30.24F WCI  -1
$$
MIZ004>006-011>014-085-171000-
CENTRAL UPPER MICHIGAN

CITY           SKY/WX    TMP DP  RH WIND       PRES   REMARKS
MANISTIQUE     FAIR      10   8  89 SW5       30.28F WCI   2
ESCANABA       FAIR       7   4  87 SW7       30.31F WCI  -5
MENOMINEE      FAIR       6   3  87 W7        30.37F WCI  -6
SAWYER-GWINN   FAIR       7   2  80 SW12      30.20F WCI  -8
$$
MIZ001>003-009>011-084-171000-
WESTERN UPPER MICHIGAN

CITY           SKY/WX    TMP DP  RH WIND       PRES   REMARKS
IRON MOUNTAIN  FAIR       7   1  76 VRB6      30.25F WCI  -3
HOUGHTON       CLOUDY    14   2  58 W18G29    30.14F WCI  -3
COPPER HARBOR    N/A     18  10  71 VRB6G17   30.14F WCI  10
IRONWOOD       FAIR       7   0  73 SW13      30.26F WCI  -9
$$

ABBREVIATIONS USED IN REMARKS
   TC - TEMPERATURE IN CELSIUS
  WCI - WIND CHILL INDEX
   HX - HEAT INDEX
  VSB - VISIBILITY





USA.gov is the U.S. government's official web portal to all federal, state and local government web resources and services.